#timestamp,LO_Frequency,Hit,StdDev 
1594000815.6,286046998.8,N
1594000835.4,286046997.2,N
1594000855.3,286047001.0,N
1594000875.1,286047001.6,N
1594000895.9,286046998.5,N
1594000915.7,286046999.5,N
1594000935.5,286046998.7,N
1594000955.4,286046999.1,N
1594000975.2,286046999.0,N
1594000995.0,286046997.1,N
1594000995.9,286046997.1,N
1594001015.8,286046996.7,N
1594001035.6,286046998.4,N
1594001055.5,286046997.3,N
1594001075.3,286046995.4,N
1594001095.1,286046998.7,N
1594001115.9,286046999.3,N
1594001135.7,286046997.5,N
1594001155.6,286046997.3,N
1594001175.4,286046999.0,N
1594001195.2,286046998.4,N
1594001215.1,286046998.2,N
1594001216.0,286046998.2,N
1594001235.8,286046997.0,N
1594001255.7,286046999.4,N
1594001275.5,286046997.7,N
1594001295.3,286046997.0,N
1594001315.2,286046996.7,N
1594001335.0,286046996.6,N
1594001335.9,286046996.6,N
1594001355.8,286046997.0,N
1594001375.6,286047001.2,N
1594001395.4,286046996.5,N
1594001415.3,286046996.8,N
1594001435.1,286046998.0,N
1594001455.8,286046999.0,N
1594001475.7,286046997.4,N
1594001495.5,286046996.8,N
1594001515.4,286046997.6,N
1594001535.2,286046996.5,Y
1594001555.0,286046999.9,P
1594001555.9,286046999.9,N
1594001575.8,286047000.7,N
1594001595.6,286046998.4,N
1594001615.5,286046998.3,N
1594001635.3,286047000.4,N
1594001655.1,286047000.3,N
1594001675.9,286047000.0,N
1594001695.7,286047000.6,N
1594001715.5,286047000.8,N
1594001735.4,286047000.3,N
1594001755.2,286046998.3,N
1594001775.1,286046999.2,N
1594001776.0,286046999.2,N
1594001795.8,286046998.5,N
1594001815.6,286046996.6,Y
1594001835.5,286046999.4,P
1594001855.3,286046998.4,P
1594001875.2,286047000.8,N
1594001895.9,286047002.1,N
1594001915.7,286047000.0,N
1594001935.6,286047000.2,N
1594001955.4,286046999.9,N
1594001975.2,286047000.1,N
1594001995.1,286047000.1,N
1594001996.0,286047000.1,N
1594002015.8,286047002.1,N
1594002035.7,286047002.4,N
1594002055.5,286047000.1,N
1594002075.3,286047000.7,N
1594002125.2,286047002.7,E
1594002135.1,286047000.9,N
1594002155.9,286046998.4,P
1594002175.7,286047000.7,N
1594002195.5,286046998.7,N
1594002215.4,286046996.5,Y
1594002235.2,286046999.6,P
1594002255.1,286047000.0,N
1594002256.0,286047000.0,N
1594002275.8,286047000.4,N
1594002295.6,286046999.6,N
1594002315.5,286046998.9,Y
1594002335.3,286047000.3,P
1594002355.2,286046998.2,P
1594002375.9,286046998.1,N
1594002395.7,286047000.8,N
1594002415.6,286047000.7,N
1594002435.4,286047000.8,N
1594002455.3,286047000.7,N
1594002475.1,286047001.0,N
1594002476.0,286047001.0,N
1594002495.8,286046998.5,N
1594002515.7,286047000.9,N
1594002535.5,286047000.0,N
1594002555.3,286046998.5,N
1594002575.2,286047001.0,N
1594002595.0,286047000.2,N
1594002595.9,286047000.2,N
1594002615.8,286046999.7,N
1594002635.6,286046998.5,N
1594002655.4,286046999.9,N
1594002675.3,286047001.2,N
1594002695.1,286047000.9,N
1594002715.9,286046998.2,N
1594002735.7,286047002.5,N
1594002755.5,286047000.0,N
1594002775.4,286046998.4,N
1594002795.2,286047001.2,N
1594002815.0,286047000.5,N
1594002815.9,286047000.5,N
1594002835.8,286047001.1,N
1594002855.6,286047001.2,N
1594002875.5,286046998.2,N
1594002895.3,286047000.7,N
1594002915.1,286047001.2,N
1594002935.9,286046998.2,N
1594002955.7,286046998.3,N
1594002975.6,286046999.3,N
1594002995.4,286046999.9,N
1594003015.2,286047002.4,N
1594003035.1,286047002.7,N
1594003036.0,286047002.7,N
1594003055.8,286047002.4,N
1594003075.7,286047002.5,N
1594003095.5,286047002.4,N
1594003115.3,286047002.4,N
1594003135.2,286047002.0,N
1594003155.0,286047000.3,N
1594003155.9,286047000.3,N
1594003175.8,286046998.1,N
1594003195.6,286046998.2,N
1594003215.4,286047000.8,N
1594003235.3,286047000.7,N
1594003255.1,286047000.5,N
1594003275.8,286046998.6,N
1594003295.7,286047000.4,N
1594003315.5,286046998.6,N
1594003335.4,286046999.9,N
1594003355.2,286047002.6,N
1594003375.1,286047000.2,N
1594003376.0,286047000.2,N
1594003395.8,286047001.0,N
1594003415.6,286046998.1,N
1594003435.5,286047001.3,N
1594003455.3,286046999.9,N
1594003475.1,286046998.3,N
1594003495.9,286046998.9,N
1594003515.7,286047001.1,N
1594003535.6,286046998.3,N
1594003555.4,286046999.3,N
1594003575.2,286047000.1,N
1594003595.1,286047005.5,Y
1594003596.0,286047005.5,P
1594003615.8,286047002.9,N
1594003635.7,286047003.4,N
1594003655.5,286047004.0,N
1594003675.3,286047001.7,N
1594003695.2,286047003.9,N
1594003715.0,286047002.2,N
1594003715.9,286047002.2,N
1594003735.8,286047001.5,N
1594003755.6,286047005.3,Y
1594003775.4,286047000.7,P
1594003795.3,286047002.1,N
1594003815.1,286047001.9,N
1594003835.8,286047003.3,Y
1594003855.7,286047000.5,P
1594003875.5,286046999.5,N
1594003895.4,286047001.0,N
1594003915.2,286046999.8,N
1594003935.0,286047000.2,N
1594003935.9,286047000.2,N
1594003955.8,286046998.7,N
1594003975.6,286046998.9,N
1594003995.5,286046997.8,N
1594004015.3,286046997.8,N
1594004035.1,286046997.1,N
1594004055.9,286046997.7,N
1594004075.7,286046999.6,N
1594004095.5,286046995.8,Y
1594004115.4,286046995.4,P
1594004135.2,286046996.1,N
1594004155.1,286046995.1,N
1594004156.0,286046995.1,N
1594004175.8,286046995.5,N
1594004195.6,286046997.5,N
1594004215.5,286046995.0,Y
1594004235.3,286046998.2,P
1594004255.2,286046999.7,N
1594004275.9,286047000.8,N
1594004295.7,286046997.0,N
1594004315.6,286046998.9,N
1594004335.4,286046996.9,N
1594004355.2,286046997.6,N
1594004375.1,286046999.2,N
1594004376.0,286046999.2,N
1594004395.8,286046998.9,N
